#timestamp,LO_Frequency,Hit,StdDev 
1618239615.4,286046999.1,N
1618239635.3,286046998.5,N
1618239655.1,286047001.0,N
1618239656.0,286047001.0,N
1618239675.8,286047001.1,N
1618239695.7,286046999.9,N
1618239715.5,286046999.7,N
1618239735.4,286047002.7,N
1618239755.2,286047002.2,N
1618239775.0,286047000.1,N
1618239775.9,286047000.1,N
1618239795.8,286047000.8,N
1618239815.6,286047000.9,N
1618239835.4,286047000.9,N
1618239855.3,286046999.2,N
1618239875.1,286046996.9,N
1618239895.9,286046998.7,N
1618239915.7,286046998.6,N
1618239935.5,286047001.2,N
1618239955.4,286047001.1,N
1618239975.2,286047000.6,N
1618239995.1,286046998.5,N
1618239996.0,286046998.5,N
1618240015.8,286046999.3,N
1618240035.6,286047000.8,N
1618240055.5,286047000.6,N
1618240075.3,286047002.4,N
1618240095.1,286046998.4,N
1618240115.9,286047001.2,N
1618240135.7,286046998.3,N
1618240155.6,286046998.8,N
1618240175.4,286046999.5,N
1618240195.2,286046996.8,N
1618240215.1,286046997.2,N
1618240216.0,286046997.2,N
1618240235.8,286046999.2,N
1618240255.7,286046999.0,N
1618240275.5,286047000.6,N
1618240295.3,286047001.1,N
1618240315.2,286047001.0,N
1618240335.0,286047000.1,N
1618240335.9,286047000.1,N
1618240355.8,286047002.6,N
1618240375.6,286047001.7,N
1618240395.4,286047004.6,N
1618240415.3,286047007.2,Y
1618240435.1,286047003.8,P
1618240455.8,286047002.5,N
1618240475.7,286047002.5,N
1618240495.5,286047001.5,N
1618240515.4,286047004.3,Y
1618240535.2,286047000.7,P
1618240555.0,286046999.1,N
1618240555.9,286046999.1,N
1618240575.8,286046998.1,N
1618240595.6,286046998.2,N
1618240615.4,286047000.4,N
1618240635.3,286046998.3,N
1618240655.1,286046996.8,N
1618240675.9,286046997.3,N
1618240695.7,286046997.6,N
1618240715.5,286046999.0,N
1618240735.4,286046999.6,N
1618240755.2,286046995.0,Y
1618240775.1,286046997.5,P
1618240776.0,286046997.5,P
1618240795.8,286046995.8,P
1618240815.6,286046997.7,N
1618240835.5,286046997.9,N
1618240855.3,286046999.5,N
1618240875.1,286046999.0,N
1618240895.9,286046998.4,N
1618240915.7,286046998.6,N
1618240935.6,286047001.2,N
1618240955.4,286046999.9,N
1618240975.2,286047000.0,N
1618240995.1,286046998.3,N
1618240996.0,286046998.3,N
1618241015.8,286046996.9,N
1618241035.7,286046995.2,Y
1618241055.5,286046999.5,P
1618241075.3,286046997.0,P
1618241095.2,286046997.6,N
1618241115.0,286046997.4,N
1618241115.9,286046997.4,N
1618241135.7,286046997.3,Y
1618241155.6,286046998.1,P
1618241175.4,286046999.3,P
1618241195.3,286047002.2,P
1618241215.1,286047004.1,N
1618241216.0,286047004.1,N
1618241235.8,286047003.4,N
1618241255.7,286047003.1,N
1618241275.5,286047004.1,N
1618241295.3,286047001.8,N
1618241315.2,286047001.8,N
1618241335.0,286047000.1,N
1618241335.9,286047000.1,N
1618241355.8,286046999.9,N
1618241375.6,286047001.9,N
1618241395.4,286047000.1,N
1618241415.3,286046998.4,N
1618241435.1,286047000.7,N
1618241455.8,286047000.6,N
1618241475.7,286047001.2,N
1618241495.5,286046998.4,N
1618241515.4,286046997.3,N
1618241535.2,286046997.2,N
1618241555.0,286046997.3,N
1618241555.9,286046997.3,N
1618241575.8,286046997.3,N
1618241595.6,286046997.4,N
1618241615.4,286046999.3,N
1618241635.3,286047001.0,N
1618241655.1,286047000.3,N
1618241675.9,286046998.1,N
1618241695.7,286046997.2,N
1618241715.5,286046997.7,N
1618241735.4,286046994.9,N
1618241755.2,286046996.9,N
1618241775.0,286046996.9,N
1618241775.9,286046996.9,N
1618241795.8,286046996.9,N
1618241815.6,286046998.3,N
1618241835.5,286046998.5,N
1618241855.3,286046998.4,N
1618241875.1,286046996.5,N
1618241895.9,286046996.8,N
1618241915.7,286046997.3,N
1618241935.6,286046996.8,N
1618241955.4,286046995.4,Y
1618241975.2,286047002.3,P
1618241995.1,286046998.2,N
1618241996.0,286046998.2,N
1618242015.8,286046999.0,N
1618242035.6,286046997.1,N
1618242055.5,286046994.9,Y
1618242075.3,286046996.1,P
1618242095.2,286046995.5,P
1618242115.9,286046997.7,N
1618242135.7,286046997.0,N
1618242155.6,286046995.1,Y
1618242175.4,286046996.6,P
1618242195.3,286046997.1,P
1618242215.1,286046998.5,P
1618242216.0,286046998.5,N
1618242235.8,286046996.9,Y
1618242255.7,286047000.1,P
1618242275.5,286047001.2,N
1618242295.3,286047000.3,N
1618242315.2,286047005.6,Y
1618242335.0,286047005.2,P
1618242335.9,286047005.2,N
1618242355.8,286047003.3,N
1618242375.6,286047003.9,N
1618242395.4,286047001.3,N
1618242415.3,286047004.0,N
1618242435.1,286047001.5,N
1618242455.9,286047003.9,N
1618242475.7,286047001.8,N
1618242495.5,286047003.8,N
1618242515.4,286047003.4,N
1618242535.2,286047003.2,N
1618242555.0,286047003.6,N
1618242555.9,286047003.6,N
1618242575.8,286047001.9,N
1618242595.6,286047001.4,N
1618242615.5,286047002.8,N
1618242635.3,286047001.9,N
1618242655.1,286047004.3,Y
1618242675.9,286046998.5,P
1618242695.7,286047000.1,N
1618242715.6,286046999.7,N
1618242735.4,286046999.4,N
1618242755.2,286046998.7,N
1618242775.1,286046997.0,N
1618242776.0,286046997.0,N
1618242795.8,286047011.9,Y
1618242815.7,286047004.2,P
1618242835.5,286047001.8,N
1618242855.3,286046999.9,N
1618242875.2,286047002.2,N
1618242895.0,286046999.9,N
1618242895.9,286046999.9,N
1618242915.8,286047002.8,N
1618242935.6,286047000.2,N
1618242955.4,286047000.1,N
1618242975.3,286046999.9,N
1618242995.1,286047000.5,N
1618243015.8,286047002.5,N
1618243035.7,286047000.0,N
1618243055.5,286046999.8,N
1618243075.4,286047000.7,N
1618243095.2,286047000.7,N
1618243115.0,286046996.5,N
1618243115.9,286046996.5,N
1618243135.8,286046996.8,N
1618243155.6,286046999.6,N
1618243175.5,286046997.1,N
1618243195.3,286046996.6,N
